Dallas Love, TX

6:30 PM CDT on May 22, 2017 (GMT -0500)
Dallas Love

Weather History for KDAL - August, 2013

Change the Weather History Date:

Wednesday, August 21, 2013

  Actual Average Record
Temperature  
Mean Temperature 86 °F -  
Max Temperature 96 °F 93 °F 102 °F (2006)
Min Temperature 77 °F 75 °F 71 °F (2004)
Cooling Degree Days 22    
Growing Degree Days 36 (Base 50)    
Moisture  
Dew Point 64 °F    
Average Humidity 47    
Maximum Humidity 66    
Minimum Humidity 33    
Precipitation  
Precipitation 0.00 in - - ()
Sea Level Pressure  
Sea Level Pressure 30.02 in    
Wind  
Wind Speed 7 mph (SSE)    
Max Wind Speed 13 mph    
Max Gust Speed 18 mph    
Visibility 10 miles    
Events      
Averages and records for this station are not official NWS values.
T = Trace of Precipitation, MM = Missing Value Source: NWS Daily Summary

Daily Weather History Graph

Daily Weather History Graph

Search for Another Location

Airport or City:

Trip Planner

Search our weather history database for the weather conditions in past years. The results will help you decide how hot, cold, wet, or windy it might be!

Date:

Astronomy

Aug. 21, 2013 Rise Set
Actual Time 6:54 AM CDT 8:05 PM CDT
Civil Twilight 6:29 AM CDT 8:31 PM CDT
Nautical Twilight 5:58 AM CDT 9:01 PM CDT
Astronomical Twilight 5:27 AM CDT 9:33 PM CDT
Moon 8:22 PM CDT (8/21) 7:31 AM CDT (8/21)
Length of Visible Light 14h 01m
Length of Day
13h 10m
Waxing Gibbous, 99% of the Moon is Illuminated
Aug 21
Waxing Gibbous
Aug 28
Last Quarter
Sep 5
New
Sep 12
First Quarter
Sep 19
Full

Hourly Weather History & Observations

Time (CDT) Temp. Heat Index Dew Point Humidity Pressure Visibility Wind Dir Wind Speed Gust Speed Precip Events Conditions
12:53 AM 84.0 °F 83.5 °F 57.9 °F 41% 29.98 in 10.0 mi SE 8.1 mph - N/A   Mostly Cloudy
1:53 AM 82.0 °F 82.4 °F 60.1 °F 47% 30.00 in 10.0 mi SSE 6.9 mph - N/A   Mostly Cloudy
2:53 AM 82.0 °F 83.1 °F 63.0 °F 52% 30.00 in 10.0 mi South 3.5 mph - N/A   Mostly Cloudy
3:53 AM 81.0 °F 82.7 °F 64.9 °F 58% 30.00 in 10.0 mi SSE 5.8 mph - N/A   Mostly Cloudy
4:53 AM 79.0 °F - 63.0 °F 58% 30.01 in 10.0 mi ESE 5.8 mph - N/A   Mostly Cloudy
5:53 AM 77.0 °F - 64.0 °F 64% 30.03 in 10.0 mi SE 5.8 mph - N/A   Mostly Cloudy
6:53 AM 77.0 °F - 64.9 °F 66% 30.04 in 10.0 mi SE 5.8 mph - N/A   Mostly Cloudy
7:53 AM 79.0 °F - 66.0 °F 64% 30.05 in 10.0 mi SSE 6.9 mph - N/A   Mostly Cloudy
8:53 AM 80.1 °F 82.3 °F 66.9 °F 64% 30.06 in 10.0 mi South 5.8 mph - N/A   Scattered Clouds
9:53 AM 84.0 °F 86.5 °F 66.9 °F 56% 30.07 in 10.0 mi SE 6.9 mph - N/A   Scattered Clouds
10:53 AM 87.1 °F 89.9 °F 66.9 °F 51% 30.08 in 10.0 mi South 6.9 mph - N/A   Scattered Clouds
11:53 AM 90.0 °F 92.4 °F 66.0 °F 45% 30.07 in 10.0 mi SSE 8.1 mph - N/A   Mostly Cloudy
12:53 PM 91.9 °F 94.1 °F 64.9 °F 41% 30.05 in 10.0 mi Variable 3.5 mph - N/A   Mostly Cloudy
1:53 PM 91.9 °F 93.3 °F 64.0 °F 39% 30.04 in 10.0 mi South 9.2 mph 16.1 mph N/A   Mostly Cloudy
2:53 PM 93.9 °F 95.6 °F 64.0 °F 37% 30.01 in 10.0 mi SE 11.5 mph - N/A   Mostly Cloudy
3:53 PM 93.9 °F 95.2 °F 63.0 °F 36% 29.99 in 10.0 mi SE 9.2 mph - N/A   Mostly Cloudy
4:53 PM 96.1 °F 97.3 °F 63.0 °F 33% 29.97 in 10.0 mi South 12.7 mph 18.4 mph N/A   Mostly Cloudy
5:53 PM 95.0 °F 95.6 °F 62.1 °F 33% 29.96 in 10.0 mi SE 12.7 mph 16.1 mph N/A   Mostly Cloudy
6:53 PM 93.0 °F 93.8 °F 62.1 °F 36% 29.96 in 10.0 mi SSE 10.4 mph - N/A   Mostly Cloudy
7:53 PM 91.0 °F 90.9 °F 61.0 °F 36% 29.97 in 10.0 mi SE 6.9 mph - N/A   Mostly Cloudy
8:53 PM 90.0 °F 90.6 °F 63.0 °F 40% 29.98 in 10.0 mi ESE 6.9 mph - N/A   Mostly Cloudy
9:53 PM 89.1 °F 90.0 °F 63.0 °F 42% 30.01 in 10.0 mi SE 8.1 mph - N/A   Mostly Cloudy
10:53 PM 87.1 °F 88.3 °F 64.0 °F 46% 30.01 in 10.0 mi SE 8.1 mph - N/A   Scattered Clouds
11:53 PM 84.9 °F 86.1 °F 64.0 °F 49% 30.02 in 10.0 mi Calm Calm - N/A   Partly Cloudy